User: anonymous   Login
Location: Unspecified
(0.0000°N, 0.0000°E)
Time: 07:03:08
(UTC+00:00)
Language:

HODOYOSHI 3 - Orbit

View from above orbital plane
View from above orbital plane
View from above satellite
View from above satellite

Ground track
Ground track

The orbit data is extracted from the following two-line orbital elements,

1 40015U 14033F   18048.67793489  .00000051  00000-0  14113-4 0  9995
2 40015  97.8495 301.0415 0036475 199.6729 160.3077 14.78341638197743
Epoch (UTC): 17 February 2018 16:16:13
Eccentricity: 0.0036475
inclination: 97.8495°
perigee height: 609 km
apogee height: 660 km
right ascension of ascending node: 301.0415°
argument of perigee: 199.6729°
revolutions per day: 14.78341638
mean anomaly at epoch: 160.3077°
orbit number at epoch: 19774

The dashed part of the orbit path shows where the satellite is in the earth's shadow,  

DLR